Location: Vinland
(47.7731°N, 122.6974°W)
Time: 20:51:39
(UTC+00:00)

Vanguard 1 Rocket - Pass Details

Date: 27 March 2023
Orbit: 655 x 4220 km, 34.3° (Epoch: 05 June)

Event Time Altitude Azimuth Distance (km) Brightness Sun altitude
Exits shadow 11:23:57 28° 191° (S) 2,696 9.4 -25.1°
Drops below altitude 10° 11:28:49 10° 153° (SSE) 3,225 10.1 -24.5°
Sets 11:31:24 0° 141° (SE) 3,868 10.7 -24.1°
